Flag for United Kingdom Weather past 2 weeks in Southampton, England, United Kingdom

Now
50 °F

Partly sunny.


Feels Like: 46 °F
Forecast: 37 / 54 °F
Wind: 12 mph from Northeast

Location: Southampton / Weather Centre

Current Time: Apr 26, 2015 at 2:38:33 PM

Latest Report: Apr 26, 2015 at 2:20 PM


Visibility: N/A

Pressure: 29.77 "Hg

Humidity: 76%

Dew point: 43 °F

Location of SouthamptonLocation

Historic Weather in Southampton — Graph

°F

Southampton temperature yesterday

Maximum temperature yesterday: 59 °F (at 1:50 PM)
Minimum temperature yesterday: 50 °F (at 5:50 AM)
Average temperature yesterday: 54 °F

Past Weeks' High & Low Weather Summary

 TemperatureHumidityPressure
High73 °F (Apr 15, 2:20 PM)100% (Apr 12, 6:50 AM)30.54 "Hg (Apr 12, 6:50 AM)
Low30 °F (Apr 12, 6:50 AM)35% (Apr 11, 3:50 PM)29.68 "Hg (Apr 25, 5:50 AM)
Average53 °F64%30.16 "Hg
* Reported Apr 11 1:20 PM — Apr 26 1:20 PM, Southampton, Weather by CustomWeather, © 2015

Note: Actual official high and low records may vary slightly from our data, if they occured in-between our weather recording intervals... More about our weather records

Advertising

Southampton weather history for previous 24 hours

 ConditionsComfort  
Time TempWeatherWind HumidityBarometerVisibility
1:20 PM
Sun, Apr 26
48 °FBroken clouds.12 mph82%29.77 "HgN/A
12:50 PM48 °FPartly sunny.9 mph76%29.77 "HgN/A
12:20 PM46 °FPartly sunny.9 mph87%29.77 "HgN/A
11:50 AM46 °FPartly sunny.10 mph87%29.77 "HgN/A
11:20 AM48 °FPartly sunny.9 mph87%29.77 "HgN/A
10:50 AM46 °FPartly sunny.9 mph87%29.77 "Hg6 mi
10:20 AM46 °FPartly sunny.9 mph87%29.77 "Hg4 mi
9:50 AM46 °FPartly sunny.8 mph87%29.77 "Hg4 mi
9:20 AM46 °FLow clouds.8 mph87%29.74 "Hg4 mi
8:50 AM46 °FLow clouds.8 mph87%29.74 "Hg4 mi
8:20 AM46 °FPartly sunny.12 mph87%29.74 "Hg6 mi
7:50 AM46 °FPartly sunny.10 mph87%29.74 "Hg6 mi
7:20 AM46 °FScattered showers. Partly sunny.9 mph93%29.74 "Hg5 mi
6:50 AM46 °FScattered showers. Broken clouds.7 mph93%29.74 "Hg5 mi
8:50 PM
Sat, Apr 25
52 °FSprinkles. Broken clouds.3 mph88%29.71 "HgN/A
8:20 PM52 °FSprinkles. Partly sunny.5 mph88%29.71 "HgN/A
7:50 PM52 °FRain showers. Broken clouds.7 mph88%29.71 "Hg3 mi
7:20 PM52 °FSprinkles. Broken clouds.10 mph88%29.71 "HgN/A
6:50 PM54 °FSprinkles. Broken clouds.10 mph82%29.68 "HgN/A
6:20 PM54 °FScattered showers. Scattered clouds.9 mph82%29.68 "HgN/A
5:50 PM54 °FSprinkles. Passing clouds.12 mph82%29.68 "HgN/A
5:20 PM54 °FSprinkles. Passing clouds.12 mph82%29.68 "HgN/A
4:50 PM55 °FScattered showers. Scattered clouds.15 mph72%29.68 "HgN/A
4:20 PM55 °FScattered clouds.16 mph72%29.71 "HgN/A
3:50 PM59 °FScattered clouds.12 mph63%29.68 "HgN/A
3:20 PM57 °FScattered clouds.9 mph67%29.68 "HgN/A
2:50 PM57 °FBroken clouds.12 mph63%29.71 "HgN/A
2:20 PM59 °FBroken clouds.9 mph55%29.71 "HgN/A
Weather by CustomWeather, © 2015

See weather overviewHow to use our weather pages